Other Public Products
Issued by NWS Grand Forks, ND

Home | Current Version | Previous Version | Graphics & Text | Print | Product List | Glossary On
Versions: 1 2 3 4 5 6 7 8 9 10 11 12 13 14 15 16 17 18 19 20 21 22 23 24 25 26 27 28 29 30 31 32 33 34 35 36 37 38 39 40 41 42 43 44 45 46 47 48 49 50
000
FPUS83 KFGF 180331
OPUFGF
PRAIRIE TO PINES WEATHER ROUNDUP
NATIONAL WEATHER SERVICE EASTERN NORTH DAKOTA/GRAND FORKS ND
1000 PM CDT WED SEP 17 2014

 **SATELLITE DATA USED TO AUGMENT SKY COVER AT AUTOMATED STATIONS**
 *****  WEATHER ACROSS EASTERN NORTH DAKOTA  *****

CITY           SKY/WX    TMP DP  RH WIND       PRES   REMARKS
GRAND FORKS    CLEAR     50  43  77 E9        30.05R
GRAND FORKS AF CLEAR     49  45  87 E8        30.06R
GRAND CITY NWS   N/A     48 N/A N/A NE5         N/A
BUXTON           N/A     51  49  93 N6          N/A
DEVILS LAKE    CLEAR     46  39  76 E7        30.03S
FARGO          CLEAR     55  49  80 N6        30.01R
WAHPETON ARPT  CLEAR     55  46  71 NE7       30.00R
$$

 *****  WEATHER ACROSS CENTRAL AND WESTERN NORTH DAKOTA  *****

CITY           SKY/WX    TMP DP  RH WIND       PRES   REMARKS
JAMESTOWN      CLEAR     52  49  89 E7        30.02R
BISMARCK       CLEAR     56  48  74 E5        29.98R
MINOT          CLEAR     53  46  77 E8        29.98S
MINOT AFB      CLEAR     52  49  89 SE14      29.98S
GARRISON         N/A     56  51  84 E8        29.97S
WILLISTON      CLEAR     63  44  50 SE5       29.91F
DICKINSON      CLEAR     56  47  71 SE8       29.94S
HETTINGER      CLEAR     58  49  72 E12       29.97S
$$

 *****  OTHER OBSERVATIONS NORTHEAST NORTH DAKOTA  *****

CITY           SKY/WX    TMP DP  RH WIND       PRES   REMARKS
WALHALLA         N/A     45  45 100 CALM      30.08F
LANGDON        FAIR      43  39  87 E10       30.06S
CAVALIER       FAIR      45  41  87 CALM      30.08S
GRAFTON        FAIR      45  41  87 E7        30.07R
CANDO          FAIR      45  41  87 E9        30.04F
FORT TOTTEN    NOT AVBL
ROLLA          FAIR      41  41 100 E7        30.06S
RUGBY          FAIR      48  45  87 E10       30.01F
 ***** THE ABOVE OBSERVATIONS ARE NON NWS ARE NOT QUALITY
        CONTROLLED AND MAY MIS-REPORT RAIN FOR SNOW...
$$

 *****  OTHER OBSERVATIONS SOUTHEAST NORTH DAKOTA *****

CITY           SKY/WX    TMP DP  RH WIND       PRES   REMARKS
COOPERSTOWN    NOT AVBL
VALLEY CITY    FAIR      54  52  94 NE8       30.03S
OAKES            N/A     55  50  82 NE12      30.01R
GWINNER        CLEAR     54  48  82 N7        30.02S
SHEYENNE NWR     N/A     57  51  80 NE7       29.95
BUFFALO          N/A     52  47  82 NE8         N/A
WYNDMERE       NOT AVBL
 ***** THE ABOVE OBSERVATIONS ARE NON NWS ARE NOT QUALITY
       CONTROLLED AND MAY MIS-REPORT RAIN FOR SNOW...
$$

  *****  WEATHER ACROSS NORTHERN MINNESOTA  *****

CITY           SKY/WX    TMP DP  RH WIND       PRES   REMARKS
FLAG ISLAND    PTCLDY    45  36  70 E7        30.10F
WARROAD        CLEAR     46  39  76 E13       30.10S
ROSEAU         CLEAR     36  30  80 E3        30.10S
HALLOCK        CLEAR     45  39  81 E8        30.07S
THF RVR FALLS  CLEAR     46  41  81 NE12      30.06S
HALSTAD          N/A     46  45  93 N6          N/A
FOSSTON        CLEAR     48  43  81 E6        30.05S
BAUDETTE       CLEAR     40  37  89 NE8       30.10F
WASKISH        CLEAR     41  39  93 CALM      30.09S
CROOKSTON      CLEAR     50  45  81 E7        30.06R
$$
  *****  WEATHER ACROSS CENTRAL AND WEST MINNESOTA  *****

CITY           SKY/WX    TMP DP  RH WIND       PRES   REMARKS
BEMIDJI        CLEAR     48  43  82 E10       30.06R
PARK RAPIDS    CLEAR     55  49  80 NE6       30.03R
WADENA         CLEAR     54  48  82 NE6       30.02S
DETROIT LAKES  CLEAR     55  52  88 E3        30.04S
MOORHEAD       CLEAR     54  54 100 NE3       30.02S
FERGUS FALLS   CLEAR     57  48  72 NE5       30.00S
ELBOW LAKE     FAIR      60  53  79 E3        30.00R
MORRIS MN      CLEAR     55  52  88 E5        29.99S
STAPLES        CLEAR     55  50  82 CALM      30.03R
WHEATON        CLEAR     54  46  76 E3        30.01S
$$
  *****  WEATHER ELSEWHERE ACROSS MINNESOTA  *****

CITY           SKY/WX    TMP DP  RH WIND       PRES   REMARKS
DULUTH         CLOUDY    45  39  79 E12       30.11S
INTRNTL FALLS  CLEAR     33  31  92 CALM      30.11R
ELY            MOCLDY    43  39  87 SE7       30.12R
CLOQUET        CLOUDY    45  39  81 E9G18     30.11R
BRAINERD       PTCLDY    47  45  93 E10       30.06R
HIBBING        CLOUDY    45  40  82 SE10      30.11R
ALEXANDRIA     CLEAR     57  52  83 SE3       30.02R
SAINT CLOUD    CLEAR     57  53  86 E9        30.01R
MINNEAPOLIS    CLEAR     63  52  67 CALM      30.00R
$$

  *****  WEATHER ACROSS SOUTH DAKOTA  *****

CITY           SKY/WX    TMP DP  RH WIND       PRES   REMARKS
SIOUX FALLS    MOCLDY    59  55  87 CALM      29.98R
BROOKINGS      NOT AVBL
WATERTOWN      PTCLDY    58  50  75 CALM      30.00R
HURON          CLOUDY    60  53  77 NE3       29.98R
SISSETON         N/A     52  50  93 N3        29.99R
ABERDEEN       PTCLDY    50  47  89 NE6       30.00R
MITCHELL       PTCLDY    60  55  83 E5        29.97R
PIERRE         MOCLDY    63  45  51 E15       29.93F
MOBRIDGE       CLEAR     58  49  72 E12       29.95R
RAPID CITY     CLEAR     64  51  62 E8        29.98R
$$

  *****  SOME WEATHER IN NEARBY STATES *****

CITY           SKY/WX    TMP DP  RH WIND       PRES   REMARKS
GLASGOW MT     PTCLDY    65  49  56 E16       29.81R
GREAT FALLS MT CLOUDY    71  48  43 S13       29.78S
CHEYENNE WY    CLEAR     60  43  53 W6        30.12R
SCOTTSBLUFF NE CLEAR     64  48  56 NE7       29.96R
OMAHA NE       CLEAR     70  59  68 VRB5      29.95R
DES MOINES IA  CLEAR     66  57  72 E7        29.99R
DAVENPORT IA   CLEAR     52  48  86 E5        30.02R
CHICAGO IL     CLEAR     61  47  59 CALM      30.02R
EAU CLAIRE WI  CLEAR     53  51  93 N8        30.01R
LA CROSSE WI   CLEAR     57  54  89 E5        30.01R
$$

  *****  SOME NATIONAL WEATHER *****

CITY           SKY/WX    TMP DP  RH WIND       PRES   REMARKS
LA GUARDIA NY  PTCLDY    65  52  62 SW8       29.98S
RALEIGH NC     MOCLDY    69  62  78 E6        29.97R
ATLANTA GA     MOCLDY    72  55  55 N5        29.95S
NEW ORLEANS LA MOCLDY    79  72  79 CALM      29.93R
OKLAHOMA CITY  CLOUDY    78  68  71 S6        29.89R
ALBUQUERQUE NM CLOUDY    67  58  72 CALM      30.12R
SALT LAKE CITY PTCLDY    79  42  26 SE9       29.88R
LOS ANGELES CA PTCLDY    74  59  59 W21       29.73R
BOISE ID       PTCLDY    79  40  24 CALM      29.70S
SEATTLE WA     CLOUDY    65  53  65 SW6       29.78R
$$

*** WEATHER ACROSS MANITOBA...SASKATCHEWAN AND ONTARIO ***
                ***ONTARIO***

CITY           SKY/WX    TMP DP  RH WIND       PRES   REMARKS
GERALDTON      PTCLDY    30  28  93 W3        30.13R
THUNDER BAY    CLOUDY    43  36  75 NE7       30.17R
SIOUX LOOKOUT  PTCLDY    28  28 100 CALM      30.15R
TORONTO        CLEAR     54  46  76 W6        29.97R
BIG TROUT LK   CLOUDY    34  19  55 NW5       30.16S
PICKLE LAKE    NOT AVBL
DRYDEN         MOCLDY    39  34  81 E5        30.14R
KENORA         PTCLDY    39  36  87 E6        30.12S
$$
                *** MANITOBA***

CITY           SKY/WX    TMP DP  RH WIND       PRES   REMARKS
BRANDON        PTCLDY    39  37  93 E9        30.07F
DAUPHIN        CLOUDY    43  39  87 SE7       30.06F
ISLAND LAKE    CLEAR     36  30  80 CALM      30.13F
PILOT MOUND      N/A     43  39  87 E6          N/A
THE PAS        CLEAR     39  36  87 SE9       29.99F
THOMPSON       PTCLDY    32  28  86 SE5       30.05F
WINNIPEG       PTCLDY    43  37  81 E9        30.11S
LYNN LAKE      MOCLDY    36  25  64 S6        29.91F
CHURCHILL      PTCLDY    28  25  86 S8        30.07F WCI  20
GILLAM         CLEAR     30  25  80 SE6       30.11F WCI  24
$$
                ***SASKATCHEWAN***

CITY           SKY/WX    TMP DP  RH WIND       PRES   REMARKS
ESTEVAN        PTCLDY    50  46  87 E13       29.96S
KINDERSLEY     MOCLDY    59  50  72 E15       29.72F
LLOYDMINSTER   MOCLDY    54  48  82 SE15      29.73S
PRINCE ALBERT  MOCLDY    48  45  87 E7        29.85F
REGINA         PTCLDY    52  46  82 SE20G26   29.89F


USA.gov is the U.S. government's official web portal to all federal, state and local government web resources and services.